IRIDIUM 90 [B]

Last updated on Tue May 29 2018 00:19:52 GMT+0000 (Coordinated Universal Time)

1 27373U 02005B 18148.56266006 .00080498 38979-7 40969-3 0 9995 2 27373 86.4346 200.5862 0302747 54.4446 308.4627 15.37520954861789

Satellite not in orbit